Location: Ciserano
(45.5833°N, 9.6000°E)
Time: 04:38:22
(UTC+00:00)

Cosmos 2181 Rocket - Pass Details

Date: 29 November 2020
Orbit: 951 x 1015 km, 82.9° (Epoch: 24 January)

Event Time Altitude Azimuth Distance (km) Brightness Sun altitude
Rises 04:56:22 0° 345° (NNW) 3,683 6.7 -17.5°
Reaches altitude 10° 04:59:02 10° 338° (NNW) 2,722 6.0 -17.1°
Maximum altitude 05:04:44 40° 272° (W) 1,389 4.3 -16.1°
Drops below altitude 10° 05:10:22 10° 205° (SSW) 2,676 6.2 -15.1°
Sets 05:12:58 0° 198° (SSW) 3,614 7.0 -14.7°
